LFJLGMMX

Guest
Details From LFJL - Metz-Nancy-Lorraine
To GMMX - MENARA
Flight Number -
Tags decoded
Created
Modified
Stats Distance 1,227 nm / 2,272 km
Max Altitude 0 ft / 0 m
Waypoints 2
Social Downloads 7
Likes 0
Share VATSIM

Download

Looking for another format? Having issues loading an existing format? Contact us
Advertisement - Login to hide

Notes

Requested: LFJL GMMX

Route

LFJL GMMX

ID Type Via Altitude Latitude Longitude Leg Dist Tot Dist Heading (true) Name
O LFJL APT - 0 ft / 0 m 48.98065˚ 6.24947˚ - 0 nm - Metz-Nancy-Lorraine
O GMMX APT - 0 ft / 0 m 31.60692˚ -8.03627˚ 1227 nm 1227 nm 217° / 208° MENARA

Altitude Profile

Advertisement - Login to hide

Weather


0- 5 10 15 20 25 30 35+ Temperature / ° C

Clouds and Precipitation
Forecast for 2018-05-23 18:00 UTC. Updated 4 hours ago

Ground ~20,000 ft ~40,000 ft Winds

LFJL

Details ICAO LFJL (ETZ)
Name Metz-Nancy-Lorraine
Region France
Timezone Europe/Paris (UTC+2.0)
Stats Elevation 870 ft / 265 m (AMSL)
Location 48.980645° 6.249473°
Runways 1
Magnetic Variation 1.775° E

METAR

LFJL 232100Z AUTO 09007KT 9000 RA ///CB 16/15 Q1018 TEMPO 4000 TSRA BECMG FEW030 BKN080

Decode

TAF

TAF AMD LFJL 231958Z 2319/2418 VRB04KT 9999 FEW030 BKN080 TEMPO 2320/2322 4000 TSRA SCT050CB PROB40 TEMPO 2402/2407 BKN007 BECMG 2407/2409 20005KT PROB40 TEMPO 2412/2418 -SHRA SCT045TCU

Decode

Departure Runways

ID Width Length Bearing (true) Bearing (mag) Surface Threshold Offset Overrun Length
04 148 ft / 45 m 10,016 ft / 3,053 m 39.13° 37.36° Asphalt 656 ft / 200 m 0 ft / 0 m
22 148 ft / 45 m 10,016 ft / 3,053 m 219.15° 217.38° Asphalt 0 ft / 0 m 0 ft / 0 m

GMMX

Details ICAO GMMX (RAK)
Name MENARA
Region Morocco
Timezone Africa/Casablanca (UTC+0.0)
Stats Elevation 1,545 ft / 471 m (AMSL)
Location 31.606920° -8.036265°
Runways 1
Magnetic Variation 1.951° W

METAR

GMMX 232100Z 27010KT 9999 OVC026 18/13 Q1016 NOSIG

Decode

TAF

TAF GMMX 231700Z 2318/2424 32014KT 8000 BKN023 TEMPO 2320/2402 5000 RA SCT013 OVC020 BECMG 2404/2406 24005KT

Decode

Destination Runways

ID Width Length Bearing (true) Bearing (mag) Surface Threshold Offset Overrun Length
10 148 ft / 45 m 10,169 ft / 3,100 m 95.99° 97.94° Asphalt 918 ft / 280 m 0 ft / 0 m
28 148 ft / 45 m 10,169 ft / 3,100 m 276.00° 277.95° Asphalt 0 ft / 0 m 0 ft / 0 m

Approach Navaids

Runway Type Ident Frequency Range Bearing (true) Bearing (mag) Slope Elevation
10 Localiser MAR 109.70 MHz 18 nm / 33 km 96.03° 97.98° - 1,545 ft / 471 m (AMSL)
10 Glidescope MAR 109.70 MHz 10 nm / 19 km 96.00° 97.95° 3.00° 1,558 ft / 475 m (AMSL)